Location: ?nandapuram
(16.5396°N, 81.1430°E)
Time: 10:47:10
(UTC+00:00)

CZ-3B R/B - Pass Details

Date: 14 April 2026
Orbit: 439 x 17147 km, 54.9° (Epoch: 20 May)

Event Time Altitude Azimuth Distance (km) Brightness Sun altitude
Exits shadow 23:08:56 - 188° (S) 2,083 4.5 -17.5°
Reaches altitude 10° 23:09:15 10° 186° (S) 1,957 4.4 -17.4°
Maximum altitude 23:12:59 45° 111° (ESE) 1,315 4.1 -16.6°
Drops below altitude 10° 23:23:52 10° 42° (NE) 5,608 7.8 -14.1°
Sets 23:32:09 0° 38° (NE) 8,794 8.8 -12.1°
